KLM12Y EHAM-LFPG

Flight info

Callsign KLM12Y
Flight time 0h 51m
Altitude 29000
Route WOODY N872 DENOX DCT SISGA DCT DELOM DCT MOPIL
Aircraft B738/M-SDE2E3FGHIRWXY/LB1

Departure

Time 2026-05-08 19:31
Airport Amsterdam Airport Schiphol (EHAM)

Arrival

Time 2026-05-08 20:22
Airport Charles de Gaulle International Airport (LFPG)
Time Latitude Longitude Altitude Speed Heading
2026-05-08 18:47 52.30710 4.77155 -2 ft 0 kts
2026-05-08 19:17 52.30692 4.77155 -2 ft 4 kts 354°
2026-05-08 19:18 52.30667 4.77165 -2 ft 4 kts 327°
2026-05-08 19:18 52.30649 4.77193 -2 ft 4 kts 289°
2026-05-08 19:18 52.30647 4.77211 -2 ft 0 kts 273°
2026-05-08 19:20 52.30647 4.77203 -2 ft 2 kts 273°
2026-05-08 19:21 52.30649 4.77143 -2 ft 8 kts 272°
2026-05-08 19:21 52.30616 4.77044 -2 ft 13 kts 195°
2026-05-08 19:21 52.30522 4.77090 -2 ft 13 kts 200°
2026-05-08 19:21 52.30459 4.76949 -2 ft 18 kts 237°
2026-05-08 19:22 52.30386 4.76761 -2 ft 19 kts 238°
2026-05-08 19:22 52.30315 4.76574 -2 ft 19 kts 237°
2026-05-08 19:22 52.30246 4.76396 -2 ft 18 kts 238°
2026-05-08 19:22 52.30181 4.76223 -2 ft 18 kts 238°
2026-05-08 19:23 52.30117 4.76057 -2 ft 17 kts 238°
2026-05-08 19:23 52.30055 4.75898 -2 ft 16 kts 237°
2026-05-08 19:23 52.29996 4.75744 -2 ft 16 kts 238°
2026-05-08 19:23 52.29941 4.75598 -2 ft 15 kts 238°
2026-05-08 19:24 52.29880 4.75439 -2 ft 17 kts 238°
2026-05-08 19:24 52.29832 4.75263 -2 ft 17 kts 271°
2026-05-08 19:24 52.29894 4.75098 -2 ft 19 kts 311°
2026-05-08 19:24 52.29986 4.74926 -2 ft 21 kts 311°
2026-05-08 19:25 52.30079 4.74756 0 ft 20 kts 311°
2026-05-08 19:25 52.30169 4.74588 9 ft 19 kts 311°
2026-05-08 19:25 52.30257 4.74426 9 ft 19 kts 310°
2026-05-08 19:25 52.30352 4.74246 -2 ft 20 kts 309°
2026-05-08 19:26 52.30345 4.74075 -2 ft 16 kts 230°
2026-05-08 19:26 52.30260 4.73963 -2 ft 15 kts 216°
2026-05-08 19:26 52.30192 4.73850 -3 ft 3 kts 243°
2026-05-08 19:26 52.30192 4.73849 -3 ft 0 kts 243°
2026-05-08 19:29 52.30190 4.73845 -3 ft 2 kts 245°
2026-05-08 19:29 52.30188 4.73782 -3 ft 10 kts 282°
2026-05-08 19:29 52.30239 4.73741 -4 ft 0 kts
2026-05-08 19:30 52.30240 4.73741 -4 ft 0 kts
2026-05-08 19:30 52.30322 4.73749 -5 ft 40 kts
2026-05-08 19:30 52.30841 4.73796 -2 ft 107 kts
2026-05-08 19:30 52.31760 4.73882 78 ft 149 kts
2026-05-08 19:31 52.32824 4.73976 623 ft 156 kts
2026-05-08 19:31 52.33913 4.74194 1213 ft 158 kts 21°
2026-05-08 19:31 52.34927 4.74892 1830 ft 164 kts 25°
2026-05-08 19:31 52.36044 4.75682 2105 ft 191 kts 25°
2026-05-08 19:32 52.37223 4.76926 2310 ft 213 kts 54°
2026-05-08 19:32 52.37612 4.79249 2716 ft 221 kts 97°
2026-05-08 19:32 52.37257 4.81686 3366 ft 224 kts 107°
2026-05-08 19:32 52.36454 4.83887 3974 ft 230 kts 141°
2026-05-08 19:33 52.34996 4.84994 4387 ft 249 kts 172°
2026-05-08 19:33 52.33231 4.85032 4860 ft 262 kts 181°
2026-05-08 19:33 52.31383 4.84954 5543 ft 267 kts 182°
2026-05-08 19:33 52.29554 4.84891 6334 ft 269 kts 182°
2026-05-08 19:34 52.27673 4.84839 7095 ft 272 kts 182°
2026-05-08 19:34 52.25766 4.84794 7816 ft 276 kts 182°
2026-05-08 19:34 52.23855 4.84752 8585 ft 279 kts 182°
2026-05-08 19:34 52.21872 4.84709 9380 ft 283 kts 182°
2026-05-08 19:35 52.19910 4.84668 10163 ft 287 kts 181°
2026-05-08 19:35 52.17861 4.84625 10591 ft 305 kts 182°
2026-05-08 19:35 52.15651 4.84577 10772 ft 329 kts 181°
2026-05-08 19:35 52.13294 4.84528 11111 ft 345 kts 181°
2026-05-08 19:36 52.10872 4.84479 11788 ft 350 kts 181°
2026-05-08 19:36 52.08422 4.84430 12596 ft 352 kts 181°
2026-05-08 19:36 52.06074 4.84382 13387 ft 354 kts 181°
2026-05-08 19:36 52.03694 4.84332 14122 ft 358 kts 182°
2026-05-08 19:37 52.01229 4.83725 14790 ft 362 kts 201°
2026-05-08 19:37 51.98950 4.81964 15562 ft 364 kts 207°
2026-05-08 19:37 51.96671 4.80100 16299 ft 368 kts 206°
2026-05-08 19:37 51.94362 4.78260 17019 ft 371 kts 206°
2026-05-08 19:38 51.92045 4.76439 17687 ft 376 kts 206°
2026-05-08 19:38 51.89672 4.74584 18356 ft 381 kts 206°
2026-05-08 19:38 51.87267 4.72708 19016 ft 384 kts 206°
2026-05-08 19:38 51.84853 4.70826 19623 ft 387 kts 206°
2026-05-08 19:39 51.82398 4.68914 20148 ft 393 kts 206°
2026-05-08 19:39 51.79913 4.66980 20687 ft 398 kts 206°
2026-05-08 19:39 51.77395 4.65022 21270 ft 402 kts 206°
2026-05-08 19:39 51.74857 4.63050 21819 ft 407 kts 206°
2026-05-08 19:40 51.72327 4.61088 22352 ft 411 kts 206°
2026-05-08 19:40 51.69727 4.59073 22865 ft 415 kts 206°
2026-05-08 19:40 51.67112 4.57049 23396 ft 419 kts 206°
2026-05-08 19:40 51.64465 4.55003 23876 ft 423 kts 206°
2026-05-08 19:41 51.61790 4.52939 24279 ft 427 kts 206°
2026-05-08 19:41 51.59096 4.50861 24676 ft 432 kts 206°
2026-05-08 19:41 51.56377 4.48768 25075 ft 435 kts 207°
2026-05-08 19:41 51.53624 4.46651 25469 ft 439 kts 207°
2026-05-08 19:42 51.50849 4.44520 25862 ft 443 kts 207°
2026-05-08 19:42 51.48055 4.42378 26225 ft 447 kts 207°
2026-05-08 19:42 51.45264 4.40240 26545 ft 452 kts 207°
2026-05-08 19:42 51.42403 4.38052 26895 ft 456 kts 207°
2026-05-08 19:43 51.39527 4.35856 27273 ft 459 kts 207°
2026-05-08 19:43 51.36624 4.33647 27637 ft 463 kts 207°
2026-05-08 19:43 51.33707 4.31432 27969 ft 466 kts 207°
2026-05-08 19:43 51.30756 4.29193 28356 ft 469 kts 207°
2026-05-08 19:44 51.27837 4.26978 28830 ft 469 kts 207°
2026-05-08 19:44 51.24883 4.24737 29138 ft 472 kts 207°
2026-05-08 19:44 51.21893 4.22468 29120 ft 475 kts 207°
2026-05-08 19:45 51.15934 4.18007 29117 ft 469 kts 205°
2026-05-08 19:45 51.09805 4.14529 29126 ft 472 kts 200°
2026-05-08 19:46 51.03543 4.11256 29120 ft 473 kts 200°
2026-05-08 19:46 50.94170 4.06170 29105 ft 475 kts 201°
2026-05-08 19:47 50.87850 4.03359 29100 ft 476 kts 189°
2026-05-08 19:47 50.81235 4.03327 29116 ft 476 kts 175°
2026-05-08 19:48 50.74625 4.04215 29104 ft 476 kts 175°
2026-05-08 19:48 50.68001 4.04995 29103 ft 476 kts 176°
2026-05-08 19:49 50.61419 4.05710 29103 ft 477 kts 176°
2026-05-08 19:49 50.54793 4.06432 29094 ft 477 kts 176°
2026-05-08 19:50 50.48151 4.07156 29103 ft 478 kts 176°
2026-05-08 19:50 50.41550 4.07810 29100 ft 478 kts 181°
2026-05-08 19:51 50.38246 4.07316 29114 ft 476 kts 192°
2026-05-08 19:51 50.35037 4.06039 29108 ft 475 kts 201°
2026-05-08 19:51 50.28907 4.01946 29111 ft 486 kts 206°
2026-05-08 19:52 50.22623 3.97684 29095 ft 494 kts 206°
2026-05-08 19:52 50.19462 3.95576 28919 ft 491 kts 205°
2026-05-08 19:52 50.16378 3.93535 28625 ft 483 kts 205°
2026-05-08 19:53 50.13298 3.91506 28355 ft 477 kts 205°
2026-05-08 19:53 50.10237 3.89492 28074 ft 475 kts 205°
2026-05-08 19:53 50.07193 3.87488 27802 ft 473 kts 205°
2026-05-08 19:53 50.04153 3.85489 27299 ft 472 kts 205°
2026-05-08 19:54 50.01148 3.83515 26780 ft 466 kts 205°
2026-05-08 19:54 49.98218 3.81593 26290 ft 458 kts 205°
2026-05-08 19:54 49.95284 3.79670 25844 ft 459 kts 204°
2026-05-08 19:54 49.92329 3.77734 25187 ft 456 kts 204°
2026-05-08 19:55 49.89405 3.75822 24576 ft 452 kts 204°
2026-05-08 19:55 49.86560 3.73965 24026 ft 446 kts 204°
2026-05-08 19:55 49.83705 3.72103 23443 ft 441 kts 203°
2026-05-08 19:55 49.80894 3.70273 22821 ft 435 kts 203°
2026-05-08 19:56 49.78118 3.68468 22264 ft 428 kts 203°
2026-05-08 19:56 49.75389 3.66696 21721 ft 422 kts 203°
2026-05-08 19:56 49.72703 3.64954 21196 ft 416 kts 203°
2026-05-08 19:56 49.70049 3.63233 20675 ft 410 kts 203°
2026-05-08 19:57 49.67464 3.61560 20168 ft 405 kts 203°
2026-05-08 19:57 49.64850 3.59870 19661 ft 399 kts 203°
2026-05-08 19:57 49.62297 3.58221 19164 ft 395 kts 203°
2026-05-08 19:57 49.59808 3.56615 18680 ft 390 kts 203°
2026-05-08 19:58 49.57311 3.55005 18164 ft 386 kts 202°
2026-05-08 19:58 49.54845 3.53418 17616 ft 381 kts 202°
2026-05-08 19:58 49.52444 3.51875 17112 ft 376 kts 202°
2026-05-08 19:58 49.50038 3.50328 16623 ft 371 kts 203°
2026-05-08 19:59 49.47662 3.48804 16145 ft 367 kts 203°
2026-05-08 19:59 49.45347 3.47321 15684 ft 363 kts 203°
2026-05-08 19:59 49.43101 3.45568 15230 ft 362 kts 218°
2026-05-08 19:59 49.41424 3.42764 15139 ft 354 kts 236°
2026-05-08 20:00 49.40262 3.39387 15111 ft 362 kts 246°
2026-05-08 20:00 49.39288 3.35789 15086 ft 366 kts 248°
2026-05-08 20:00 49.38349 3.32149 15075 ft 366 kts 248°
2026-05-08 20:00 49.37415 3.28511 15067 ft 365 kts 248°
2026-05-08 20:01 49.36492 3.24957 14985 ft 359 kts 248°
2026-05-08 20:01 49.35559 3.21411 14565 ft 357 kts 248°
2026-05-08 20:01 49.34623 3.17891 14009 ft 356 kts 247°
2026-05-08 20:01 49.33681 3.14377 13404 ft 355 kts 247°
2026-05-08 20:02 49.32742 3.10892 12883 ft 351 kts 247°
2026-05-08 20:02 49.31810 3.07443 12365 ft 348 kts 247°
2026-05-08 20:02 49.30886 3.04033 11971 ft 343 kts 247°
2026-05-08 20:02 49.29989 3.00725 11673 ft 338 kts 247°
2026-05-08 20:03 49.29090 2.97418 11413 ft 336 kts 247°
2026-05-08 20:03 49.28184 2.94090 11178 ft 340 kts 247°
2026-05-08 20:03 49.27270 2.90736 11103 ft 343 kts 247°
2026-05-08 20:03 49.26349 2.87362 11063 ft 340 kts 247°
2026-05-08 20:04 49.25440 2.84033 11061 ft 338 kts 247°
2026-05-08 20:04 49.24530 2.80708 11076 ft 339 kts 247°
2026-05-08 20:04 49.23630 2.77424 11078 ft 339 kts 247°
2026-05-08 20:04 49.22715 2.74089 11067 ft 339 kts 247°
2026-05-08 20:05 49.21798 2.70751 11064 ft 339 kts 247°
2026-05-08 20:05 49.20885 2.67426 11079 ft 339 kts 247°
2026-05-08 20:05 49.19968 2.64099 11066 ft 340 kts 247°
2026-05-08 20:05 49.19045 2.60758 11075 ft 341 kts 247°
2026-05-08 20:06 49.18185 2.57398 11032 ft 335 kts 255°
2026-05-08 20:06 49.17946 2.53961 10969 ft 323 kts 269°
2026-05-08 20:06 49.17920 2.50591 10882 ft 310 kts 269°
2026-05-08 20:06 49.17878 2.47362 10798 ft 297 kts 268°
2026-05-08 20:07 49.17822 2.44265 10719 ft 286 kts 268°
2026-05-08 20:07 49.17759 2.41278 10646 ft 275 kts 268°
2026-05-08 20:07 49.17695 2.38409 10573 ft 265 kts 268°
2026-05-08 20:07 49.17633 2.35636 10504 ft 256 kts 268°
2026-05-08 20:08 49.17571 2.32964 10397 ft 248 kts 267°
2026-05-08 20:08 49.17509 2.30341 10170 ft 246 kts 268°
2026-05-08 20:08 49.17451 2.27730 9907 ft 245 kts 268°
2026-05-08 20:08 49.17365 2.25122 9620 ft 245 kts 260°
2026-05-08 20:09 49.16895 2.22628 9336 ft 244 kts 251°
2026-05-08 20:09 49.16365 2.20208 9080 ft 242 kts 252°
2026-05-08 20:09 49.15826 2.17751 8744 ft 245 kts 251°
2026-05-08 20:09 49.15286 2.15276 8483 ft 244 kts 251°
2026-05-08 20:10 49.14756 2.12831 8215 ft 243 kts 251°
2026-05-08 20:10 49.14229 2.10387 8055 ft 241 kts 251°
2026-05-08 20:10 49.13707 2.07958 7839 ft 238 kts 251°
2026-05-08 20:10 49.13201 2.05587 7569 ft 239 kts 251°
2026-05-08 20:11 49.12690 2.03169 7305 ft 239 kts 251°
2026-05-08 20:11 49.12184 2.00744 7133 ft 239 kts 251°
2026-05-08 20:11 49.11680 1.98309 7101 ft 243 kts 252°
2026-05-08 20:11 49.11034 1.95939 7016 ft 243 kts 233°
2026-05-08 20:12 49.09664 1.94451 6788 ft 244 kts 194°
2026-05-08 20:12 49.08027 1.94216 6709 ft 239 kts 182°
2026-05-08 20:12 49.06393 1.94146 6615 ft 235 kts 182°
2026-05-08 20:12 49.04763 1.94088 6540 ft 234 kts 182°
2026-05-08 20:13 49.03136 1.94036 6468 ft 234 kts 181°
2026-05-08 20:13 49.01507 1.93987 6421 ft 233 kts 182°
2026-05-08 20:13 48.99906 1.94267 6339 ft 234 kts 156°
2026-05-08 20:13 48.98736 1.95910 6337 ft 233 kts 118°
2026-05-08 20:14 48.98131 1.98199 6249 ft 239 kts 112°
2026-05-08 20:14 48.97539 2.00594 6119 ft 243 kts 111°
2026-05-08 20:14 48.96936 2.03014 5988 ft 243 kts 112°
2026-05-08 20:14 48.96448 2.05452 5838 ft 239 kts 94°
2026-05-08 20:15 48.96707 2.07892 5753 ft 231 kts 77°
2026-05-08 20:15 48.96956 2.10273 5598 ft 225 kts 85°
2026-05-08 20:15 48.97038 2.11845 5486 ft 222 kts 87°
2026-05-08 20:15 48.97144 2.14152 5366 ft 214 kts 87°
2026-05-08 20:16 48.97277 2.17005 5313 ft 193 kts 87°
2026-05-08 20:16 48.97343 2.18369 5230 ft 196 kts 86°
2026-05-08 20:16 48.97441 2.20395 4994 ft 197 kts 86°
2026-05-08 20:16 48.97543 2.22464 4738 ft 195 kts 86°
2026-05-08 20:17 48.97645 2.24512 4477 ft 193 kts 86°
2026-05-08 20:17 48.97746 2.26520 4215 ft 191 kts 86°
2026-05-08 20:17 48.97846 2.28528 3960 ft 189 kts 86°
2026-05-08 20:17 48.97946 2.30517 3709 ft 187 kts 86°
2026-05-08 20:18 48.98046 2.32483 3464 ft 185 kts 86°
2026-05-08 20:18 48.98144 2.34424 3226 ft 183 kts 85°
2026-05-08 20:18 48.98240 2.36313 2987 ft 179 kts 85°
2026-05-08 20:18 48.98336 2.38188 2741 ft 176 kts 85°
2026-05-08 20:19 48.98429 2.40016 2501 ft 168 kts 85°
2026-05-08 20:19 48.98517 2.41721 2315 ft 153 kts 85°
2026-05-08 20:19 48.98596 2.43260 2082 ft 139 kts 85°
2026-05-08 20:19 48.98668 2.44695 1896 ft 134 kts 85°
2026-05-08 20:20 48.98736 2.46109 1750 ft 135 kts 84°
2026-05-08 20:20 48.98813 2.47517 1555 ft 135 kts 84°
2026-05-08 20:20 48.98896 2.48946 1374 ft 135 kts 84°
2026-05-08 20:20 48.98969 2.50390 1200 ft 139 kts 85°
2026-05-08 20:21 48.99044 2.51890 1001 ft 145 kts 84°
2026-05-08 20:21 48.99127 2.53412 793 ft 143 kts 84°
2026-05-08 20:21 48.99203 2.54918 593 ft 142 kts 82°
2026-05-08 20:21 48.99286 2.56401 424 ft 139 kts 83°
2026-05-08 20:22 48.99364 2.57833 352 ft 126 kts 85°
2026-05-08 20:22 48.99417 2.58878 357 ft 70 kts 85°
2026-05-08 20:22 48.99493 2.59335 354 ft 31 kts 64°
2026-05-08 20:22 48.99568 2.59586 355 ft 19 kts 65°
2026-05-08 20:23 48.99660 2.59688 353 ft 18 kts 353°
2026-05-08 20:23 48.99783 2.59675 354 ft 18 kts 354°
2026-05-08 20:23 48.99900 2.59661 361 ft 14 kts 355°
2026-05-08 20:23 48.99992 2.59650 355 ft 13 kts 355°
2026-05-08 20:24 49.00080 2.59640 356 ft 13 kts 355°
2026-05-08 20:24 49.00167 2.59629 358 ft 12 kts 355°
2026-05-08 20:24 49.00252 2.59619 353 ft 13 kts 354°
2026-05-08 20:24 49.00356 2.59605 353 ft 18 kts 356°
2026-05-08 20:25 49.00482 2.59589 353 ft 19 kts 355°
2026-05-08 20:25 49.00610 2.59574 357 ft 18 kts 355°
2026-05-08 20:25 49.00733 2.59559 353 ft 17 kts 355°
2026-05-08 20:25 49.00852 2.59545 353 ft 17 kts 355°
2026-05-08 20:26 49.00967 2.59528 353 ft 16 kts 344°
2026-05-08 20:26 49.01000 2.59387 359 ft 16 kts 265°
2026-05-08 20:26 49.00991 2.59226 353 ft 15 kts 266°
2026-05-08 20:26 49.00979 2.59072 357 ft 14 kts 258°
2026-05-08 20:27 49.00953 2.58920 356 ft 16 kts 263°
2026-05-08 20:27 49.00942 2.58746 353 ft 18 kts 265°
2026-05-08 20:27 49.00932 2.58551 355 ft 19 kts 265°
2026-05-08 20:27 49.00921 2.58358 355 ft 18 kts 263°
2026-05-08 20:28 49.00911 2.58172 360 ft 17 kts 266°
2026-05-08 20:28 49.00901 2.57992 353 ft 17 kts 265°
2026-05-08 20:28 49.00893 2.57819 360 ft 16 kts 264°
2026-05-08 20:28 49.00860 2.57737 358 ft 0 kts 205°
2026-05-08 20:29 49.00859 2.57737 358 ft 1 kts 204°
2026-05-08 20:30 49.00855 2.57736 359 ft 2 kts 193°
2026-05-08 20:30 49.00827 2.57732 356 ft 6 kts 172°
2026-05-08 20:30 49.00785 2.57767 358 ft 7 kts 161°
2026-05-08 20:30 49.00743 2.57786 358 ft 1 kts 164°
2026-05-08 20:31 49.00738 2.57789 356 ft 1 kts 163°
2026-05-08 20:31 49.00734 2.57791 353 ft 1 kts 163°
2026-05-08 20:31 49.00732 2.57792 353 ft 0 kts 162°